Weather History for KMEM - October, 2010

Change the Weather History Date:

Monday, October 18, 2010

  Actual Average Record
Temperature  
Mean Temperature 71 °F 63 °F  
Max Temperature 86 °F 74 °F 90 °F (2007)
Min Temperature 55 °F 53 °F 29 °F (1948)
Degree Days  
Heating Degree Days 0 4  
Month to date heating degree days 22 46  
Since 1 July heating degree days 22 57  
Cooling Degree Days 6 2  
Month to date cooling degree days 72 69  
Year to date cooling degree days 2801 2220  
Growing Degree Days 20 (Base 50)    
Moisture  
Dew Point 46 °F    
Average Humidity 44    
Maximum Humidity 62    
Minimum Humidity 25    
Precipitation  
Precipitation 0.00 in 0.14 in 2.45 in (1905)
Month to date precipitation T 2.19  
Year to date precipitation 36.77 40.66  
Snow  
Snow 0.00 in 0.00 in 0.00 in (2002)
Month to date snowfall 0.0 0.0  
Since 1 July snowfall 0.0 0.0  
Since 1 September snowfall 0.0 0.0  
Snow Depth -    
Sea Level Pressure  
Sea Level Pressure 29.95 in    
Wind  
Wind Speed 3 mph (SW)    
Max Wind Speed 12 mph    
Max Gust Speed 21 mph    
Visibility 10 miles    
Events      
T = Trace of Precipitation, MM = Missing Value Source: NWS Daily Summary

Daily Weather History Graph

Daily Weather History Graph

Search for Another Location

Airport or City:

Trip Planner

Search our weather history database for the weather conditions in past years. The results will help you decide how hot, cold, wet, or windy it might be!

Date:

Astronomy

Oct. 18, 2010 Rise Set
Actual Time 7:08 AM CDT 6:21 PM CDT
Civil Twilight 6:42 AM CDT 6:46 PM CDT
Nautical Twilight 6:13 AM CDT 7:16 PM CDT
Astronomical Twilight 5:43 AM CDT 7:45 PM CDT
Moon 3:58 PM CDT (10/18) 3:06 AM CDT (10/18)
Length of Visible Light 12h 03m
Length of Day
11h 12m
Waxing Gibbous, 83% of the Moon is Illuminated
Oct 18
Waxing Gibbous
Oct 22
Full
Oct 30
Last Quarter
Nov 5
New
Nov 13
First Quarter

Hourly Weather History & Observations

Time (CDT) Temp. Dew Point Humidity Pressure Visibility Wind Dir Wind Speed Gust Speed Precip Events Conditions
12:53 AM 61.0 °F 44.1 °F 54% 30.01 in 10.0 mi Calm Calm - N/A   Mostly Cloudy
1:53 AM 62.1 °F 44.1 °F 52% 30.01 in 10.0 mi Calm Calm - N/A   Overcast
2:53 AM 59.0 °F 45.0 °F 60% 29.99 in 10.0 mi Calm Calm - N/A   Mostly Cloudy
5:53 AM 57.9 °F 45.0 °F 62% 30.00 in 10.0 mi Calm Calm - N/A   Mostly Cloudy
6:53 AM 57.2 °F 44.6 °F 63% 30.02 in 10.0 mi Calm Calm - N/A   Mostly Cloudy
7:53 AM 55.0 °F 43.0 °F 64% 30.02 in 10.0 mi Calm Calm - N/A   Scattered Clouds
8:53 AM 64.9 °F 43.0 °F 45% 30.03 in 10.0 mi Calm Calm - N/A   Scattered Clouds
9:53 AM 71.1 °F 42.1 °F 35% 30.02 in 10.0 mi Calm Calm - N/A   Partly Cloudy
10:53 AM 77.0 °F 42.8 °F 29% 30.01 in 10.0 mi WSW 5.8 mph - N/A   Scattered Clouds
11:53 AM 81.0 °F 45.0 °F 28% 29.99 in 10.0 mi Variable 3.5 mph - N/A   Scattered Clouds
12:53 PM 84.0 °F 46.0 °F 26% 29.96 in 10.0 mi Variable 4.6 mph - N/A   Scattered Clouds
1:53 PM 84.9 °F 46.0 °F 26% 29.92 in 10.0 mi WSW 9.2 mph - N/A   Scattered Clouds
2:53 PM 86.0 °F 46.0 °F 25% 29.89 in 10.0 mi West 6.9 mph - N/A   Scattered Clouds
3:53 PM 82.9 °F 45.0 °F 26% 29.87 in 10.0 mi WSW 8.1 mph - N/A   Mostly Cloudy
4:53 PM 82.9 °F 45.0 °F 26% 29.87 in 10.0 mi SSW 8.1 mph - N/A   Scattered Clouds
5:53 PM 80.1 °F 46.9 °F 31% 29.88 in 10.0 mi WSW 6.9 mph - N/A   Scattered Clouds
6:53 PM 75.0 °F 46.9 °F 37% 29.89 in 10.0 mi SW 5.8 mph - N/A   Scattered Clouds
7:53 PM 71.1 °F 48.9 °F 45% 29.90 in 10.0 mi SSW 5.8 mph - N/A   Mostly Cloudy
8:53 PM 70.0 °F 48.9 °F 47% 29.91 in 10.0 mi SSW 6.9 mph - N/A   Scattered Clouds
9:53 PM 66.9 °F 48.9 °F 52% 29.91 in 10.0 mi SSW 3.5 mph - N/A   Clear
10:53 PM 68.0 °F 48.9 °F 50% 29.91 in 10.0 mi Calm Calm - N/A   Scattered Clouds
11:53 PM 66.9 °F 50.0 °F 54% 29.91 in 10.0 mi Calm Calm - N/A   Scattered Clouds